User: anonymous   Login
Location: Unspecified
(0.0000°N, 0.0000°E)
Time: 17:01:47
(UTC+00:00)
Language:

STPSAT 1 - Orbit

View from above orbital plane
View from above orbital plane
View from above satellite
View from above satellite

Ground track
Ground track

The orbit data is extracted from the following two-line orbital elements,

1 30775U 07006D   17264.94037545 +.00001775 +00000-0 +70898-4 0  9998
2 30775 035.4294 245.1029 0001942 099.9097 260.1845 15.25270968582357
Epoch (UTC): 21 September 2017 22:34:08
Eccentricity: 0.0001942
inclination: 35.4294°
perigee height: 488 km
apogee height: 491 km
right ascension of ascending node: 245.1029°
argument of perigee: 99.9097°
revolutions per day: 15.25270968
mean anomaly at epoch: 260.1845°
orbit number at epoch: 58235

The dashed part of the orbit path shows where the satellite is in the earth's shadow,  

DLR